Regional Weather Roundup
Issued by NWS Cleveland, OH

Home | Current Version | Previous Version | Graphics & Text | Print | Product List | Glossary On
Versions: 1 2 3 4 5 6 7 8 9 10 11 12 13 14 15 16 17 18 19 20 21 22 23 24 25 26 27 28 29 30 31 32 33 34 35 36 37 38 39 40 41 42 43 44 45 46 47 48 49 50
796
ASUS41 KCLE 230512
RWRCLE
OHIO REGIONAL WEATHER ROUNDUP
NATIONAL WEATHER SERVICE WILMINGTON, OH
1200 AM EST MON JAN 23 2017

NOTE: "FAIR" INDICATES FEW OR NO CLOUDS BELOW 12,000 FEET WITH NO
SIGNIFICANT WEATHER AND/OR OBSTRUCTIONS TO VISIBILITY.

OHZ001>008-015>018-024>027-034-035-043-044-230600-
   NORTHWEST OHIO

CITY           SKY/WX    TMP DP  RH WIND       PRES   REMARKS
DEFIANCE       FOG       44  44 100 N13       29.59F VSB 3/4
FINDLAY        CLOUDY    41  38  89 NE13      29.55F FOG
TOLEDO EXPRESS CLOUDY    38  38 100 NE13      29.61F
TOLEDO EXEC    FOG       38  38 100 NE12      29.62F VSB 3/4
LIMA           FOG       43  43 100 N14       29.54S VSB 1/2
$$

OHZ009>014-019>023-028>033-038-089-230600-
   NORTHEAST OHIO

CITY           SKY/WX    TMP DP  RH WIND       PRES   REMARKS
CLE-HOPKINS    CLOUDY    41  37  86 N7        29.58F
CLE-LAKEFRONT  CLOUDY    38  36  92 NE13      29.56F FOG
CUY CO. ARPT   NOT AVBL
LORAIN-ELYRIA  CLOUDY    38  36  92 NE10      29.56F
ASHTABULA      CLOUDY    40  40 100 VRB5      29.60S FOG
AKRON-CANTON   MOCLDY    53  47  79 NE10      29.53F
WOOSTER        FAIR      51  47  86 NE10      29.52F
MANSFIELD      FAIR      50  48  93 N9        29.52F
YOUNGSTOWN     MOCLDY    51  45  79 E9        29.57S
$$

OHZ042-051>053-060>062-070>072-077>081-230600-
  SOUTHWEST OHIO

CITY           SKY/WX    TMP DP  RH WIND       PRES   REMARKS
CINC-COVINGTON CLOUDY    56  49  77 N17       29.41F
CINC-LUNKEN    CLOUDY    57  50  77 N8        29.42F
HAMILTON       CLOUDY    56  49  77 N13       29.44F
DAYTON         MOCLDY    50  47  89 N15       29.48F
WRIGHT-PAT AFB CLOUDY    54  50  87 N10       29.46F
DAYTON GENERAL FAIR      54  48  80 N12       29.44F
WILMINGTON     CLOUDY    52  48  86 NE15      29.41F
$$

OHZ036-037-039>041-045>050-054>059-063>069-073>076-082>088-230600-
  CENTRAL AND SOUTHEAST OHIO

CITY           SKY/WX    TMP DP  RH WIND       PRES   REMARKS
COLUMBUS       CLOUDY    56  48  74 N9        29.45F
OSU AIRPORT    MOCLDY    55  49  80 NE10      29.46F
BOLTON FIELD   CLOUDY    55  49  81 NE9       29.45F
RICKENBACK AFB   N/A     55  48  78 NE13      29.43F
NEWARK         MOCLDY    57  47  69 NE7       29.45F
MARION         CLOUDY    49  46  90 NE13      29.51F
LANCASTER      CLOUDY    55  48  77 NE8       29.44F
ZANESVILLE     CLOUDY    55  48  77 NE7       29.46F
NEW PHILLY     CLOUDY    55  48  77 E6        29.51F
$$




USA.gov is the U.S. government's official web portal to all federal, state and local government web resources and services.